OneWeb SL0455

operational
NORAD ID: 51645 Int'l Des: 2022-012 Owner: ONEWEBN Country: UK Constellation: oneweb
LEOCIRCULARPOLAR

关于 OneWeb SL0455

正在加载描述...

实时位置

正在加载3D地球...

即将过境

高度历史

Altitude vs Time

uPlot chart will show altitude changes over time

两行轨道根数

1 51645U 22012Z 25308.12188647 .00000342 00000-0 14228-3 0 9992
2 51645 87.5305 335.8037 0018215 147.4317 212.8002 14.23492128194122
Epoch: Nov 4, 2025 • Age: 8 hours

当前状态

高度 822.1 km
速度 7.44 km/s
星下点 -35.09°S, 46.67°W
发射日期 Feb 10, 2022
运行时间 3.7 years
类型 internet

技术详情

分类 Payload
质量 148.00 kg
干质量 140.00 kg
总质量 148.00 kg
长度 1.30 m
直径 1.00 m
跨度 5.00 m
形状 Trapezoid+2 pan
制造商 ONEWUS
平台类型 ARROW
阶段状态 In Orbit
所有者/国家 ONEWEBN/UK

大型星座

Loading constellations...